Location: Belloy
(55.7522°N, 118.2333°W)
Time: 00:31:01
(UTC+00:00)

Envisat - Pass Details

Date: 06 December 2021
Orbit: 764 x 766 km, 98.2° (Epoch: 27 January)

Event Time Altitude Azimuth Distance (km) Brightness Sun altitude
Rises 14:14:30 0° 12° (NNE) 3,250 6.2 -14.4°
Reaches altitude 10° 14:16:57 10° 4° (N) 2,319 5.3 -14.1°
Maximum altitude 14:21:35 36° 299° (WNW) 1,196 3.5 -13.4°
Drops below altitude 10° 14:26:12 10° 234° (SW) 2,304 5.2 -12.8°
Sets 14:28:38 0° 226° (SW) 3,226 6.0 -12.5°
